Cartersville, GA

12:09 PM EST on November 19, 2017 (GMT -0500)
Cartersville

Weather History for KVPC - March, 2014

Change the Weather History Date:

Sunday, March 16, 2014

  Actual Average Record
Temperature  
Mean Temperature 55 °F 52 °F  
Max Temperature 58 °F 65 °F 81 °F (2012)
Min Temperature 51 °F 39 °F 23 °F (2017)
Degree Days  
Heating Degree Days 10 13  
Month to date heating degree days 240 244  
Since 1 July heating degree days 3034 2856  
Cooling Degree Days 0 0  
Month to date cooling degree days 0 0  
Year to date cooling degree days 0 0  
Growing Degree Days 4 (Base 50)    
Moisture  
Dew Point 52 °F    
Average Humidity 86    
Maximum Humidity 100    
Minimum Humidity 72    
Precipitation  
Precipitation 1.21 in 0.17 in 3.10 in (1976)
Month to date precipitation 3.23 2.47  
Year to date precipitation 8.95 11.97  
Snow  
Snow 0.00 in - - ()
Month to date snowfall 0.0  
Since 1 July snowfall 0.0  
Snow Depth -    
Sea Level Pressure  
Sea Level Pressure 29.77 in    
Wind  
Wind Speed 5 mph (East)    
Max Wind Speed 12 mph    
Max Gust Speed 19 mph    
Visibility 6 miles    
Events Rain    
T = Trace of Precipitation, MM = Missing Value Source: NWS Daily Summary

Daily Weather History Graph

Daily Weather History Graph

Search for Another Location

Airport or City:

Trip Planner

Search our weather history database for the weather conditions in past years. The results will help you decide how hot, cold, wet, or windy it might be!

Date:

Astronomy

Mar. 16, 2014 Rise Set
Actual Time 7:48 AM EDT 7:47 PM EDT
Civil Twilight 7:23 AM EDT 8:12 PM EDT
Nautical Twilight 6:54 AM EDT 8:42 PM EDT
Astronomical Twilight 6:25 AM EDT 9:11 PM EDT
Moon 8:02 PM EDT (3/16) 7:32 AM EDT (3/16)
Length of Visible Light 12h 49m
Length of Day
11h 59m
Full, 100% of the Moon is Illuminated
Mar 16
Full
Mar 16
Full
Mar 23
Last Quarter
Mar 30
New
Apr 7
First Quarter

Hourly Weather History & Observations

Time (EDT) Temp. Dew Point Humidity Pressure Visibility Wind Dir Wind Speed Gust Speed Precip Events Conditions
12:53 AM 53.1 °F 46.0 °F 77% 29.99 in 10.0 mi Calm Calm - N/A   Clear
1:53 AM 52.0 °F 46.0 °F 80% 29.96 in 10.0 mi Calm Calm - N/A   Partly Cloudy
2:53 AM 55.9 °F 46.9 °F 72% 29.94 in 10.0 mi SSE 5.8 mph - 0.00 in   Overcast
3:53 AM 53.1 °F 48.9 °F 86% 29.92 in 8.0 mi Calm Calm - 0.01 in Rain Light Rain
4:49 AM 53.6 °F 50.0 °F 88% 29.91 in 5.0 mi Calm Calm - 0.03 in Rain Light Rain
4:53 AM 53.1 °F 50.0 °F 89% 29.89 in 5.0 mi Calm Calm - 0.04 in Rain Light Rain
5:21 AM 52.0 °F 51.1 °F 97% 29.89 in 4.0 mi ENE 3.5 mph - 0.05 in Rain Rain
5:46 AM 53.1 °F 50.0 °F 89% 29.87 in 5.0 mi East 5.8 mph - 0.09 in Rain Light Rain
5:53 AM 53.1 °F 51.1 °F 93% 29.84 in 5.0 mi East 5.8 mph - 0.10 in Rain Light Rain
6:40 AM 52.0 °F 50.0 °F 93% 29.86 in 4.0 mi East 3.5 mph - 0.10 in Rain Rain
6:53 AM 52.0 °F 51.1 °F 97% 29.84 in 4.0 mi ENE 4.6 mph - 0.13 in Rain Rain
7:06 AM 52.0 °F 50.0 °F 93% 29.86 in 3.0 mi NE 4.6 mph - 0.05 in Rain Rain
7:26 AM 52.0 °F 51.1 °F 97% 29.85 in 2.5 mi East 5.8 mph - 0.14 in Rain Heavy Rain
7:53 AM 52.0 °F 51.1 °F 97% 29.81 in 2.5 mi ENE 5.8 mph - 0.29 in Rain Rain
8:09 AM 53.1 °F 51.1 °F 93% 29.83 in 3.0 mi East 9.2 mph - 0.08 in Rain Rain
8:20 AM 53.1 °F 51.1 °F 93% 29.83 in 4.0 mi East 6.9 mph - 0.13 in Rain Rain
8:27 AM 53.1 °F 51.1 °F 93% 29.82 in 5.0 mi East 8.1 mph - 0.14 in Rain Rain
8:53 AM 53.1 °F 51.1 °F 93% 29.80 in 4.0 mi East 8.1 mph - 0.22 in Rain Rain
9:03 AM 53.1 °F 51.1 °F 93% 29.82 in 3.0 mi Variable 4.6 mph - 0.05 in Rain Heavy Rain
9:07 AM 53.1 °F 51.1 °F 93% 29.82 in 3.0 mi Variable 6.9 mph - 0.09 in Rain Heavy Rain
9:53 AM 54.0 °F 52.0 °F 93% 29.78 in 4.0 mi East 8.1 mph - 0.21 in Rain Rain
10:07 AM 54.0 °F 52.0 °F 93% 29.78 in 2.5 mi East 10.4 mph 17.3 mph 0.07 in Rain Heavy Rain
10:23 AM 54.0 °F 52.0 °F 93% 29.77 in 4.0 mi East 9.2 mph 19.6 mph 0.11 in Rain Light Rain
10:49 AM 53.6 °F 51.8 °F 94% 29.76 in 2.0 mi Variable 4.6 mph - 0.17 in Rain Rain
10:53 AM 54.0 °F 52.0 °F 93% 29.75 in 2.5 mi Variable 3.5 mph - 0.18 in Rain Light Rain
11:02 AM 54.0 °F 52.0 °F 93% 29.78 in 3.0 mi Variable 4.6 mph - 0.00 in Rain Light Rain
11:16 AM 54.0 °F 52.0 °F 93% 29.78 in 4.0 mi Variable 4.6 mph - 0.01 in Rain Light Rain
11:31 AM 54.0 °F 52.0 °F 93% 29.77 in 4.0 mi East 4.6 mph - 0.02 in Rain Light Rain
11:39 AM 55.0 °F 52.0 °F 89% 29.76 in 5.0 mi ESE 8.1 mph - 0.02 in Rain Light Rain
11:53 AM 55.0 °F 52.0 °F 89% 29.74 in 10.0 mi Variable 5.8 mph - 0.02 in   Overcast
12:08 PM 55.0 °F 52.0 °F 89% 29.75 in 10.0 mi East 5.8 mph - N/A   Overcast
12:18 PM 55.0 °F 52.0 °F 89% 29.74 in 8.0 mi Variable 5.8 mph - N/A   Overcast
12:53 PM 55.9 °F 53.1 °F 90% 29.71 in 10.0 mi East 4.6 mph - N/A   Overcast
1:53 PM 57.0 °F 54.0 °F 89% 29.69 in 10.0 mi ESE 5.8 mph - 0.01 in   Overcast
2:53 PM 57.0 °F 54.0 °F 89% 29.65 in 10.0 mi ESE 4.6 mph - N/A   Overcast
3:53 PM 57.0 °F 54.0 °F 89% 29.66 in 8.0 mi ENE 3.5 mph - N/A   Overcast
4:45 PM 57.0 °F 55.0 °F 93% 29.65 in 5.0 mi ESE 5.8 mph - 0.00 in   Overcast
4:53 PM 57.0 °F 55.0 °F 93% 29.62 in 7.0 mi ESE 6.9 mph - 0.00 in   Overcast
5:04 PM 57.0 °F 55.0 °F 93% 29.64 in 10.0 mi ESE 8.1 mph - N/A   Overcast
5:53 PM 57.9 °F 55.0 °F 90% 29.63 in 9.0 mi East 5.8 mph - N/A   Overcast
6:53 PM 57.0 °F 55.0 °F 93% 29.65 in 3.0 mi ENE 3.5 mph - N/A   Overcast
6:59 PM 55.9 °F 55.0 °F 97% 29.67 in 2.5 mi NE 4.6 mph - N/A   Overcast
7:15 PM 55.9 °F 54.0 °F 93% 29.67 in 2.0 mi NE 4.6 mph - N/A   Overcast
7:42 PM 55.9 °F 54.0 °F 93% 29.69 in 4.0 mi ENE 4.6 mph - N/A   Overcast
7:53 PM 55.0 °F 54.0 °F 96% 29.68 in 6.0 mi East 6.9 mph - N/A   Overcast
8:18 PM 55.0 °F 53.1 °F 93% 29.70 in 10.0 mi ESE 6.9 mph - N/A   Overcast
8:53 PM 55.0 °F 53.1 °F 93% 29.69 in 10.0 mi East 5.8 mph - N/A   Overcast
9:53 PM 55.0 °F 53.1 °F 93% 29.69 in 10.0 mi East 5.8 mph - N/A   Overcast
10:33 PM 54.0 °F 53.1 °F 97% 29.70 in 10.0 mi East 6.9 mph - N/A   Overcast
10:53 PM 54.0 °F 53.1 °F 97% 29.68 in 10.0 mi East 5.8 mph - N/A   Overcast
11:53 PM 53.1 °F 52.0 °F 96% 29.68 in 10.0 mi East 8.1 mph - 0.00 in   Overcast